Rbgn^[z[y[W
メイン
   新天体発見情報
     Comet C/2021 C4 (ATLAS)
投稿するにはまず登録を

スレッド表示 | 新しいものから 前のトピック | 次のトピック | 下へ
投稿者 スレッド
佐藤裕久
投稿日時: 2021-3-13 12:22
モデレータ
登録日: 2005-6-12
居住地: 日本
投稿: 2505
オンライン
Comet C/2021 C4 (ATLAS)

2月12.6日、ハワイ Haleakalaにある小惑星地球衝突最終警報システム Asteroid Terrestrial-
impact Last Alert System (ATLAS)調査プログラムのコースに0.5-m f/2 Schmidt反射望遠鏡
で得たCCD画像から小惑星状天体が発見された。
小惑星センターのPCCP webpageに公表後、佐藤英貴氏(東京都文京区, 2月17.77日UT、60秒露
出10枚のスタック, 0.51-m f/6.8 アストログラフ, Siding Spring, NSW, 遠隔操作:恒星状
に見える。4".9の円形範囲で測定した光度は18.7等であった。2月22.64日、追加60秒露出6枚
のスタック:強く集光した8"のコマが見えるが、尾はない。4".9の円形範囲で測定した光度は
18.5等であった)らCCD位置観測者によって彗星状と観測された。

彗星機能の報告は次の通り:

OC   Date        Reporter           Coma    Tail    PA          Exposures
Q62  2021-02-20  C. Jacques        10"
X02  2021-02-22  E. Guido           8"                            5x90s
Q62  2021-02-22  H. Sato            8"                            6x60s

発見位置は次のとおり、

     2021 UT             R.A. (2000) Decl.       Mag.
     Feb. 12.61103   14 54 20.38   -43 58 05.0   18.7
          12.61378   14 54 20.26   -43 58 04.7   19.0
          12.61698   14 54 20.21   -43 58 05.2   18.7
          12.62700   14 54 19.69   -43 58 03.9   19.1

MPCの双曲線軌道要素、位置推算表は次のとおり、

Orbital elements:
    C/2021 C4 (ATLAS)                                                           
Epoch 2021 Jan. 26.0 TT = JDT 2459240.5                                         
T 2021 Jan. 21.04894 TT                                 Rudenko                 
q   4.5041455            (2000.0)            P               Q                  
z  -0.0000112      Peri.  320.80609     -0.64524298     -0.74232238             
 +/-0.0000000      Node   194.26203     -0.37306167     +0.09984880             
e   1.0000504      Incl.  132.85204     -0.66669820     +0.66256147             
From 37 observations 2021 Feb. 12-22, mean residual 0".4.                       
                                                                                
    C/2021 C4 (ATLAS)                                                           
Epoch 2020 Dec. 17.0 TT = JDT 2459200.5                                         
T 2021 Jan. 21.03130 TT                                 Rudenko                 
q   4.5041497            (2000.0)            P               Q                  
z  -0.0000000      Peri.  320.80393     -0.64520922     -0.74234936             
 +/-0.0000000      Node   194.26269     -0.37306661     +0.09982018             
e   1.0000000      Incl.  132.85149     -0.66672810     +0.66253555             
From 37 observations 2021 Feb. 12-22, mean residual 0".4.                       
                                                                                
Ephemeris:
Date    TT    R. A. (2000) Decl.     Delta      r    Elong.  Phase   m1
2021 01 27    15 01 29.3 -44 10 51   4.6929  4.5044    73.0    12.1  18.9
...
2021 02 11    14 55 19.2 -44 00 11   4.4373  4.5073    87.7    12.6  18.8
...
2021 02 19    14 49 48.1 -43 46 53   4.2986  4.5102    96.0    12.6  18.7
...
2021 02 25    14 44 35.0 -43 31 41   4.1963  4.5130   102.4    12.4  18.7
2021 02 26    14 43 37.4 -43 28 37   4.1796  4.5135   103.4    12.3  18.7
2021 02 27    14 42 38.2 -43 25 25   4.1629  4.5141   104.5    12.3  18.6
...
2021 03 05    14 36 11.4 -43 02 26   4.0654  4.5176   111.1    11.8  18.6
...
2021 03 13    14 26 14.1 -42 20 31   3.9444  4.5230   119.9    11.0  18.5
...
2021 03 28    14 04 09.5 -40 19 13   3.7589  4.5357   136.6     8.7  18.4

(MPEC 2021-D113、CBET 4937)

スレッド表示 | 新しいものから 前のトピック | 次のトピック | トップ

投稿するにはまず登録を
 
© 1999 Tsutomu Seki.